Hourly Weather Roundup
Issued by NWS Central Illinois

Home | Current Version | Previous Version | Text Only | Print | Product List | Glossary On
Versions: 1 2 3 4 5 6 7 8 9 10 11 12 13 14 15 16 17 18 19 20 21 22 23 24 25 26 27 28 29 30 31 32 33 34 35 36 37 38 39 40 41 42 43 44 45 46 47 48 49 50
000
NZUS43 KILX 282310
HWRILX

AREA WEATHER ROUNDUP
NATIONAL WEATHER SERVICE, LINCOLN IL
600 PM CDT MON JUL 28 2014


CITY           SKY/WX    TMP DP  RH WIND       PRES   REMARKS
BLOOMINGTON    MOSUNNY   69  49  48 N17       30.12S
CHAMPAIGN      PTSUNNY   71  52  50 N14       30.09S
DECATUR        MOSUNNY   71  51  49 N14       30.10S
FLORA          SUNNY     72  52  48 N10G21    30.07S
GALESBURG      CLOUDY    71  54  54 N7        30.14S
JACKSONVILLE   MOSUNNY   73  55  52 N10       30.13S
LACON          CLOUDY    70  48  46 N8        30.11S
LAWRENCEVILLE  SUNNY     74  55  51 NW16      30.05S
LITCHFIELD     MOSUNNY   72  54  54 N10       30.10F
$$


CITY           SKY/WX    TMP DP  RH WIND       PRES   REMARKS
LINCOLN        PTSUNNY   71  53  52 N8        30.08S
MACOMB         MOSUNNY   71  53  52 N9        30.16S
MATTOON        SUNNY     71  53  52 N16       30.08S
MT CARMEL AP   MOSUNNY   75  55  50 N8        30.04F
OLNEY-NOBLE AP MOSUNNY   72  55  56 NW12      30.06S
PARIS          PTSUNNY   71  55  58 N8        30.07S
PEORIA         CLOUDY    72  50  45 N6G20     30.12S
PONTIAC        CLOUDY    70  52  52 N9        30.10F
RANTOUL        MOSUNNY   71  45  38 N10G17    30.10S
ROBINSON       MOSUNNY   74  56  53 NW12      30.06S
SPRINGFIELD    PTSUNNY   71  53  52 N9        30.11S
TAYLORVILLE    MOSUNNY   70  52  52 N13G18    30.10S
$$

...REGIONAL REPORTS...


CITY           SKY/WX    TMP DP  RH WIND       PRES   REMARKS
CHICAGO O`HARE MOSUNNY   71  48  43 NE6       30.07F
KANKAKEE       MOSUNNY   68  49  50 N7        30.09S
MOLINE         MOSUNNY   73  50  44 NW7       30.12F
MOUNT VERNON   CLOUDY    73  55  53 N3        30.07F
PITTSFIELD     MOSUNNY   72  52  50 N9G17     30.14S
QUINCY         MOSUNNY   72  52  49 N12       30.14S
ROCKFORD       MOSUNNY   73  49  42 NW8       30.11F
$$


CITY           SKY/WX    TMP DP  RH WIND       PRES   REMARKS
BURLINGTON     MOSUNNY   73  52  47 N10       30.13F
CEDAR RAPIDS   PTSUNNY   73  53  49 NW9       30.13F
DES MOINES     PTSUNNY   73  59  61 W14       30.16F
KIRKSVILLE     SUNNY     75  54  47 N10       30.17F
OTTUMWA        CLOUDY    72  57  59 NW7       30.14F
ST LOUIS       PTSUNNY   75  56  51 N14G20    30.11R
$$


CITY           SKY/WX    TMP DP  RH WIND       PRES   REMARKS
TERRE HAUTE    MOSUNNY   71  55  56 N9G18     30.05S
EVANSVILLE     SUNNY     75  56  51 N10G20    30.03S
INDIANAPOLIS   MOSUNNY   67  52  58 NW16      30.03S
LAFAYETTE      SUNNY     66  45  46 N18G28    30.07S
MADISON        PTSUNNY   73  51  46 NW9       30.09F
MILWAUKEE      PTSUNNY   63  49  60 SE3       30.08F
$$





USA.gov is the U.S. government's official web portal to all federal, state and local government web resources and services.